Date,TemperatureHighF,TemperatureAvgF,TemperatureLowF,DewpointHighF,DewpointAvgF,DewpointLowF,HumidityHigh,HumidityAvg,HumidityLow,PressureMaxIn,PressureMinIn,WindSpeedMaxMPH,WindSpeedAvgMPH,GustSpeedMaxMPH,PrecipitationSumIn
2013-3-1,70,56,41,48,39,33,80,57,26,30.25,30.08,5,1,13,0.00
2013-3-2,62,53,43,46,34,25,83,52,28,30.37,30.20,6,3,17,0.00
2013-3-3,68,52,42,50,39,30,79,62,51,30.25,30.09,6,2,15,0.00
2013-3-4,74,67,61,63,60,56,89,79,64,29.96,29.74,15,8,32,0.00
2013-3-5,69,64,57,63,55,43,92,74,39,30.15,29.76,12,6,25,0.00
2013-3-6,62,51,38,46,32,27,69,49,32,30.40,30.19,8,3,16,0.00
2013-3-7,68,60,49,58,53,47,93,81,66,30.21,30.10,8,3,18,0.00
2013-3-8,72,65,58,65,61,55,94,88,77,30.11,30.00,8,4,20,0.00
2013-3-9,74,68,65,68,65,62,93,89,80,29.99,29.64,8,5,21,0.00
2013-3-10,74,66,56,67,55,43,94,71,42,30.02,29.61,10,5,20,0.21
2013-3-11,68,58,47,44,37,27,75,49,25,30.11,29.96,8,3,17,0.00
2013-3-12,71,59,47,55,44,33,86,60,30,30.18,30.03,5,2,12,0.00
2013-3-13,73,61,49,56,50,44,92,70,37,30.38,30.17,6,3,14,0.00
2013-3-14,72,63,52,60,55,50,94,76,57,30.35,30.24,7,2,14,0.00
2013-3-15,75,67,61,63,60,56,91,78,60,30.24,30.02,8,4,19,0.00
2013-3-16,77,70,64,66,63,60,90,79,65,30.01,29.80,10,6,21,0.00
2013-3-17,78,71,67,69,67,64,94,86,73,29.81,29.64,8,4,20,0.00
2013-3-18,82,73,67,70,68,65,94,84,67,29.84,29.68,5,3,14,0.00
2013-3-19,76,70,63,69,64,56,92,82,71,29.93,29.80,7,4,16,0.00
2013-3-20,76,67,62,65,58,51,91,73,41,30.11,29.86,12,5,25,0.00
2013-3-21,73,68,62,65,60,54,85,75,66,30.00,29.65,7,4,17,0.00
2013-3-22,74,71,70,70,69,66,94,91,88,29.68,29.61,7,3,17,0.00
2013-3-23,71,69,62,69,67,60,96,95,89,29.67,29.59,4,2,14,0.00
2013-3-24,67,62,53,65,46,31,96,62,30,30.03,29.59,8,4,24,0.01
2013-3-25,64,53,41,34,28,20,71,42,19,30.30,30.09,14,5,22,0.00
2013-3-26,68,56,44,42,29,25,59,37,21,30.44,30.27,7,4,16,0.00
2013-3-27,68,60,49,55,47,41,78,64,51,30.31,30.16,7,3,16,0.00
2013-3-28,72,67,64,63,61,58,89,82,72,30.19,30.11,6,2,15,0.00
2013-3-29,76,68,61,66,63,59,94,83,68,30.15,30.05,9,3,17,0.00
2013-3-30,77,71,65,69,66,62,93,86,73,30.07,29.91,6,3,14,0.00
2013-3-31,78,72,69,70,68,66,94,87,73,29.93,29.78,8,4,17,0.00